Station ORIN7 - 8652587 - Oregon Inlet Marina, NC Image indicating link to RSS feed of recent meteorological observations for station ORIN7


Conditions at ORIN7 as of
(3:30 am EDT)
0730 GMT on 05/29/2024:
     

Click on the graph icon in the table below to see a time series plot of the last five days of that observation.

5-day plot - Wind Direction Wind Direction (WDIR): NW ( 320 deg true )
5-day plot - Wind Speed Wind Speed (WSPD): 5.1 kts
5-day plot - Wind Gust Wind Gust (GST): 6.0 kts
5-day plot - Atmospheric Pressure Atmospheric Pressure (PRES):29.92 in
5-day plot - Air Temperature Air Temperature (ATMP): 73.6 °F
5-day plot - Water Temperature Water Temperature (WTMP): 71.4 °F
5-day plot - Wind Speed at 10 Meters Wind Speed at 10 meters (WSPD10M): 5.8 kts
5-day plot - Wind Speed at 20 Meters Wind Speed at 20 meters (WSPD20M): 5.8 kts
5-day plot -  Wind Speed, Wind Gust and Atmospheric Pressure Combined plot of Wind Speed, Gust, and Air Pressure
NOS Water Level Observation Network Water Level
Previous observations
TIME
(EDT)
5-day plot - Wind Direction
WDIR
 
5-day plot - Wind Speed
WSPD
kts
5-day plot - Wind Gust
GST
kts
5-day plot - Wave Height
WVHT
ft
5-day plot - Dominant Wave Period
DPD
sec
5-day plot - Average Wave Period
APD
sec
5-day plot - Mean Wave Direction
MWD
 
5-day plot - Atmospheric Pressure
PRES
in
5-day plot - Pressure Tendency
PTDY
in
5-day plot - Air Temperature
ATMP
°F
5-day plot - Water Temperature
WTMP
°F
5-day plot - Dew Point
DEWP
°F
5-day plot - Salinity
SAL
psu
5-day plot - Visibility
VIS
nmi
5-day plot - Tide (above MLLW)
TIDE
ft
2024-05-29 03:24 am NW 4.1 5.1----29.92- 73.4 72.0----
2024-05-29 03:18 am NW 4.1 5.1----29.93- 73.4 72.5----
2024-05-29 03:12 am NW 4.1 5.1----29.93- 73.4 73.2----
2024-05-29 03:06 amNNW 4.1 5.1----29.93- 73.2 73.9----
2024-05-29 03:00 amNNW 4.1 5.1----29.93-0.01 73.2 74.8----
2024-05-29 02:54 am NW 2.9 5.1----29.93- 73.4 75.7----
2024-05-29 02:48 am NW 4.1 5.1----29.93- 73.6 76.8----
2024-05-29 02:42 am NW 5.1 6.0----29.94- 73.8 77.2----
2024-05-29 02:36 amWNW 5.1 7.0----29.94- 73.6 78.3----
2024-05-29 02:30 amWNW 5.1 6.0----29.95- 73.6 79.5----
2024-05-29 02:24 amWNW 4.1 6.0----29.95- 73.6 81.1----
2024-05-29 02:18 amWNW 4.1 5.1----29.95-- 81.5----
2024-05-29 02:12 am NW 4.1 6.0----29.94- 73.8 81.7----
2024-05-29 02:06 am NW 5.1 7.0----29.94- 73.9 81.7----
2024-05-29 02:00 am NW 5.1 6.0----29.95+0.02 73.8 81.7----
2024-05-29 01:54 am NW 4.1 6.0----29.95- 73.8 81.7----
2024-05-29 01:48 am NW 5.1 7.0----29.95- 73.9 81.7----
2024-05-29 01:42 amWNW 6.0 8.0----29.95- 74.1 81.7----
2024-05-29 01:36 amWNW 7.0 8.0----29.95- 74.3 81.7----
2024-05-29 01:30 am NW 6.0 8.0----29.95- 74.5 81.7----
2024-05-29 01:24 amWNW 6.0 8.9----29.95- 74.7 81.7----
2024-05-29 01:18 amWNW 5.1 8.9----29.95- 74.7 81.7----
2024-05-29 01:12 amWNW 7.0 8.9----29.95- 74.8 81.7----
2024-05-29 01:06 amWNW 7.0 8.9----29.95- 74.8 81.7----
2024-05-29 01:00 am--------- 74.7 81.7----
2024-05-29 12:54 am--------- 74.7 81.7----
2024-05-29 12:48 amWNW 5.1 8.0----29.95- 74.5-----
2024-05-29 12:42 amWNW 7.0 8.0----29.95- 74.3-----
2024-05-29 12:36 am W 6.0 8.0----29.95- 74.3-----
2024-05-29 12:30 am W 6.0 8.0----29.94- 74.3 81.9----
2024-05-29 12:24 am W 6.0 8.0----29.94- 74.1 81.9----
2024-05-29 12:18 am W 5.1 8.9----29.94- 74.3 81.9----
2024-05-29 12:12 am W 7.0 9.9----29.94- 74.1 81.9----
2024-05-29 12:06 am W 6.0 8.9----29.94- 74.3 82.0----
2024-05-29 12:00 am W 6.0 8.0----29.94+0.02 74.3 82.0----
2024-05-28 11:54 pm W 6.0 8.0----29.93- 73.9 82.0----
2024-05-28 11:48 pm W 6.0 8.9----29.93- 73.9 82.0----
2024-05-28 11:42 pm W 8.9 9.9----29.94- 73.9 82.0----
2024-05-28 11:36 pm W 7.0 9.9----29.93- 73.9 82.0----
2024-05-28 11:30 pm W 7.0 9.9----29.93- 73.8 82.0----
2024-05-28 11:24 pm W 6.0 9.9----29.93- 73.4 82.0----
2024-05-28 11:18 pm W 7.0 11.1----29.93- 73.2 82.0----
2024-05-28 11:12 pm W 8.0 11.1----29.93- 73.4 82.0----
2024-05-28 11:06 pm W 8.0 9.9----29.92- 73.8 82.0----
2024-05-28 11:00 pm W 8.0 12.0----29.93+0.03 73.9 82.0----
2024-05-28 10:54 pm W 7.0 9.9----29.93- 73.9 82.0----
2024-05-28 10:48 pm W 8.0 11.1----29.93- 73.8 82.0----
2024-05-28 10:42 pm W 7.0 9.9----29.93- 73.4 82.0----
2024-05-28 10:36 pm W 7.0 9.9----29.93- 73.6 82.0----
2024-05-28 10:30 pm W 8.0 11.1----29.94- 73.9 82.0----
2024-05-28 10:24 pm W 9.9 12.0----29.94- 73.9 82.0----
2024-05-28 10:18 pm W 12.0 13.0----29.94- 74.7 82.0----
2024-05-28 10:12 pm W 12.0 14.0----29.94- 74.8 82.0----
2024-05-28 10:06 pm W 8.0 11.1----29.94- 74.8 82.0----
2024-05-28 10:00 pm W 8.0 11.1----29.93+0.04 75.0 82.0----
2024-05-28 09:54 pm W 11.1 13.0----29.93- 76.1 82.0----
2024-05-28 09:48 pmWSW 6.0 8.0----29.93- 78.4 82.2----
2024-05-28 09:42 pmWSW 5.1 7.0----29.93- 78.4 82.2----
2024-05-28 09:36 pm SW 5.1 6.0----29.93- 78.3 82.2----
2024-05-28 09:30 pm SW 6.0 8.9----29.93- 78.6 82.2----
2024-05-28 09:24 pmSSW 6.0 7.0----29.93- 78.6 82.2----
2024-05-28 09:18 pm S 5.1 7.0----29.93- 76.8 82.2----
2024-05-28 09:12 pmSSW 4.1 4.1----29.93- 77.4 82.2----
2024-05-28 09:06 pm S 4.1 5.1----29.93- 76.6 82.2----
2024-05-28 09:00 pm S 6.0 7.0----29.92+0.03 77.5 82.2----
2024-05-28 08:54 pm SW 5.1 6.0----29.93- 77.9 82.2----
2024-05-28 08:48 pm SW 5.1 8.9----29.92- 77.4 82.0----
2024-05-28 08:42 pm SW 8.9 15.0----29.92- 77.0 82.0----
2024-05-28 08:36 pm SW 14.0 18.1----29.92- 75.2 82.0----
2024-05-28 08:30 pm SW 14.0 18.1----29.91- 74.3 82.0----
2024-05-28 08:24 pmSSW 13.0 19.0----29.91- 76.8 82.0----
2024-05-28 08:18 pmSSW 8.0 8.9----29.91- 77.5 82.0----
2024-05-28 08:12 pmSSW 8.9 9.9----29.91- 77.5 82.0----
2024-05-28 08:06 pmSSW 8.9 9.9----29.91- 77.7 82.0----
2024-05-28 08:00 pm S 5.1 6.0----29.89+0.00 77.7 82.0----
2024-05-28 07:54 pm SW 5.1 6.0----29.91- 77.7 82.0----
2024-05-28 07:48 pm SW 7.0 8.0----29.92- 77.9 82.0----
2024-05-28 07:42 pmSSW 5.1 7.0----29.91- 77.9 82.0----
2024-05-28 07:36 pm SW 6.0 8.0----29.91- 78.1 82.0----
2024-05-28 07:30 pm SW 7.0 8.0----29.91- 78.1 81.9----
2024-05-28 07:24 pm SW 8.0 9.9----29.91- 78.3 81.9----
2024-05-28 07:00 pm S 6.0 8.0----29.89-0.02 78.3 81.9----
2024-05-28 06:54 pm S 7.0 8.9----29.89- 78.4 81.9----
2024-05-28 06:48 pm S 6.0 8.9----29.88- 78.8 81.9----
2024-05-28 06:42 pm S 5.1 8.0----29.89- 78.6 81.9----
2024-05-28 06:36 pmSSW 6.0 8.0----29.89- 78.6 81.9----
2024-05-28 06:30 pm-------29.89-- 81.9----
2024-05-28 06:24 pm-------29.89-- 81.9----
2024-05-28 06:18 pmSSW 6.0 9.9----29.89- 79.2 81.9----
2024-05-28 06:12 pm SW 9.9 13.0----29.89- 79.0 81.7----
2024-05-28 06:06 pm S 6.0 8.0----29.88- 79.5 81.7----
2024-05-28 06:00 pm W 8.9 18.1----29.89+0.00- 81.7----
2024-05-28 05:54 pm NW 12.0 21.0----29.91-- 81.7----
2024-05-28 05:48 pm W 8.0 8.9----29.91-- 81.7----
2024-05-28 05:42 pmWSW 5.1 6.0----29.90-- 81.7----
2024-05-28 05:36 pmWSW 4.1 6.0----29.91-- 81.7----
2024-05-28 05:30 pm SW 4.1 7.0------------
2024-05-28 05:24 pm SW 8.0 9.9------------
2024-05-28 05:18 pm SW 8.0 8.0----29.90-- 81.5----
2024-05-28 05:12 pm SW 6.0 8.9----29.90-- 81.5----
2024-05-28 05:06 pmWSW 8.0 11.1----29.90-- 81.3----
2024-05-28 05:00 pm SW 8.9 11.1----29.90-0.03- 81.3----
2024-05-28 04:54 pm SW 8.0 9.9----29.89-- 81.3----
2024-05-28 04:48 pm SW 8.9 13.0----29.90-- 81.3----
2024-05-28 04:42 pm SW 12.0 13.0----29.90-- 81.3----
2024-05-28 04:36 pm SW 12.0 15.0----29.90-- 81.1----
2024-05-28 04:30 pm SW 14.0 15.9------------
2024-05-28 04:24 pm SW 12.0 15.9------------
2024-05-28 04:18 pm SW 14.0 15.9----29.91-- 81.0----
2024-05-28 04:12 pmSSW 14.0 18.1----29.91-- 80.8----
2024-05-28 04:06 pmSSW 14.0 19.0----29.91-- 80.6----
2024-05-28 04:00 pmSSW 15.9 17.1----29.91-0.03 77.7 80.6----
2024-05-28 03:54 pmSSW 12.0 14.0----29.91- 79.2 80.4----
2024-05-28 03:48 pmSSW 11.1 14.0----29.90- 78.8 80.4----
2024-05-28 03:42 pm S 11.1 14.0----29.90- 79.5 80.4----
2024-05-28 03:36 pmSSW 11.1 12.0----29.91- 80.1 80.4----
2024-05-28 03:30 pm S 8.9 11.1----29.90- 80.1 80.1----
2024-05-28 03:24 pm S 8.9 11.1----29.90- 80.2 79.9----
2024-05-28 03:18 pm S 6.0 8.9----29.90- 81.3 79.9----
2024-05-28 03:12 pmSSE 6.0 8.9----29.89- 81.0 79.7----
2024-05-28 03:06 pm SE 6.0 8.0----29.89- 81.1 79.5----
2024-05-28 03:00 pm S 5.1 8.9----29.89-0.06 81.0 79.5----
2024-05-28 02:54 pmSSE 6.0 8.9----29.90- 81.1 79.3----
2024-05-28 02:48 pm S 5.1 8.0----29.90- 81.1 79.3----
2024-05-28 02:42 pm S 7.0 8.9----29.90- 80.4 79.2----
2024-05-28 02:36 pm S 5.1 7.0----29.90- 80.2 79.2----
2024-05-28 02:30 pmSSW 5.1 6.0----29.90- 79.9 79.2----
2024-05-28 02:24 pmSSW 5.1 7.0----29.91- 79.9 79.0----
2024-05-28 02:18 pmSSW 6.0 7.0----29.91- 79.3 79.0----
2024-05-28 02:12 pmSSW 5.1 6.0----29.92- 79.7 79.0----
2024-05-28 02:06 pmSSW 5.1 5.1----29.92- 79.7 78.8----
2024-05-28 02:00 pmSSW 4.1 5.1----29.92-0.03 79.7 78.8----
2024-05-28 01:54 pmSSW 4.1 5.1----29.92- 79.2 78.8----
2024-05-28 01:48 pmSSW 4.1 5.1----29.93- 79.2 78.6----
2024-05-28 01:42 pmSSW 4.1 5.1----29.93- 79.2 78.6----
2024-05-28 01:36 pmSSW 4.1 5.1----29.93- 79.0 78.6----
2024-05-28 01:30 pmSSW 4.1 5.1----29.93- 79.2 78.4----
2024-05-28 01:24 pmSSW 4.1 5.1----29.93- 79.0 78.4----
2024-05-28 01:18 pmSSW 4.1 5.1----29.93- 79.0 78.4----
2024-05-28 01:12 pmSSW 4.1 5.1----29.94- 79.0 78.4----
2024-05-28 01:06 pmSSW 4.1 6.0----29.94- 78.6 78.3----
2024-05-28 01:00 pmSSW 5.1 6.0----29.94+0.00 78.4 78.3----
2024-05-28 12:54 pmSSW 5.1 7.0----29.94- 78.3 78.3----
2024-05-28 12:48 pmSSW 5.1 6.0----29.95- 78.1 78.3----
2024-05-28 12:42 pm SW 5.1 5.1----29.95- 78.6 78.3----
2024-05-28 12:36 pmWSW 5.1 6.0----29.95- 78.1 78.1----
2024-05-28 12:30 pmWSW 6.0 7.0----29.95- 77.9 78.1----
2024-05-28 12:24 pmWSW 6.0 6.0----29.95- 77.7 78.1----
2024-05-28 12:18 pmWSW 5.1 6.0----29.95- 77.9 77.9----
2024-05-28 12:12 pmWSW 5.1 6.0----29.95- 77.7 77.9----
2024-05-28 12:06 pmWSW 5.1 6.0----29.95- 77.9 77.9----
2024-05-28 12:00 pmWSW 6.0 7.0----29.96+0.03 77.9 77.9----
2024-05-28 11:54 amWSW 6.0 7.0----29.96- 77.5 77.9----
2024-05-28 11:48 amWSW 6.0 7.0----29.96- 77.5 77.9----
2024-05-28 11:42 amWSW 6.0 7.0----29.95- 77.4 77.9----
2024-05-28 11:36 amWSW 6.0 7.0----29.95- 77.2 77.9----
2024-05-28 11:30 amWSW 6.0 7.0----29.95- 77.2 77.9----
2024-05-28 11:24 amWSW 6.0 7.0----29.96- 77.0 77.9----
2024-05-28 11:18 amWSW 7.0 7.0----29.96- 76.8 77.7----
2024-05-28 11:12 amWSW 7.0 8.0----29.95- 76.8 77.7----
2024-05-28 11:06 amWSW 6.0 8.0----29.95- 76.6 77.7----
2024-05-28 11:00 amWSW 7.0 8.0----29.95+0.06 76.6 77.7----
2024-05-28 10:54 am SW 8.0 8.9----29.95- 76.5 77.7----
2024-05-28 10:48 am SW 8.0 8.9----29.95- 76.5 77.7----
2024-05-28 10:42 am SW 8.9 9.9----29.95- 76.1 77.7----
2024-05-28 10:36 am SW 8.9 11.1----29.95- 75.9 77.7----
2024-05-28 10:30 amWSW 9.9 11.1----29.95- 75.7 77.7----
2024-05-28 10:24 amWSW 9.9 11.1----29.95- 75.7 77.7----
2024-05-28 10:18 amWSW 8.9 11.1----29.94- 75.7 77.7----
2024-05-28 10:12 amWSW 8.9 11.1----29.94- 75.7 77.7----
2024-05-28 10:06 amWSW 8.9 9.9----29.94- 75.7 77.7----
2024-05-28 10:00 amWSW 8.0 8.9----29.94+0.06 75.9 77.7----
2024-05-28 09:54 amWSW 8.0 8.9----29.94- 75.9 77.7----
2024-05-28 09:48 am SW 8.0 8.9----29.93- 75.9 77.5----
2024-05-28 09:42 amWSW 7.0 8.0----29.93- 75.9 77.5----
2024-05-28 09:36 amWSW 7.0 8.9----29.93- 75.7 77.5----
2024-05-28 09:30 am SW 7.0 8.0----29.92- 76.1 77.5----
2024-05-28 09:24 am SW 8.0 8.9----29.93- 75.7 77.5----
2024-05-28 09:18 am SW 8.0 9.9----29.93- 75.7 77.5----
2024-05-28 09:12 am SW 8.0 8.9----29.93- 75.9 77.5----
2024-05-28 09:06 am SW 6.0 7.0----29.93- 76.1 77.5----
2024-05-28 09:00 am W 6.0 8.0----29.93+0.06 76.1 77.5----
2024-05-28 08:54 am W 7.0 8.9----29.92- 76.1 77.5----
2024-05-28 08:48 am W 7.0 8.9----29.91- 75.9 77.4----
2024-05-28 08:42 am W 7.0 11.1----29.91- 75.9 77.4----
2024-05-28 08:36 am W 8.0 9.9----29.91- 75.7 77.4----
2024-05-28 08:30 am W 8.0 9.9----29.91- 75.9 77.4----
2024-05-28 08:24 am W 8.0 9.9----29.91- 75.9 77.4----
2024-05-28 08:18 am W 6.0 8.0----29.90- 76.3 77.4----
2024-05-28 08:12 am W 5.1 8.0----29.90- 76.3 77.2----
2024-05-28 08:06 am W 5.1 8.0----29.89- 76.1 77.2----
2024-05-28 08:00 amWNW 6.0 8.0----29.89+0.02 76.1 77.2----
2024-05-28 07:54 amWNW 6.0 8.0----29.88- 76.1 77.2----
2024-05-28 07:48 amWNW 8.9 11.1----29.88- 76.3 77.2----
2024-05-28 07:42 amWNW 8.9 11.1----29.88- 76.5 77.0----
2024-05-28 07:36 amWNW 7.0 11.1----29.87- 76.1 77.0----
2024-05-28 07:30 am NW 7.0 9.9----29.87- 75.9 77.0----
2024-05-28 07:24 am NW 5.1 8.0----29.88- 75.9 77.0----
2024-05-28 07:18 am NW 7.0 12.0----29.88- 75.9 76.8----
2024-05-28 07:12 amWNW 8.9 12.0----29.87- 75.6 76.8----
2024-05-28 07:06 amWNW 8.9 12.0----29.88- 75.6 76.8----
2024-05-28 07:00 amWNW 8.0 11.1----29.88+0.00 75.6 76.6----
2024-05-28 06:54 amWNW 6.0 12.0----29.88- 75.6 76.6----
2024-05-28 06:48 amWNW 9.9 12.0----29.88- 75.6 76.5----
2024-05-28 06:42 amWNW 8.0 12.0----29.88- 75.6 76.3----
2024-05-28 06:36 amWNW 8.0 11.1----29.88- 75.6 76.3----
2024-05-28 06:30 amWNW 7.0 9.9----29.88- 75.6 76.3----
2024-05-28 06:24 amWNW 6.0 11.1----29.87- 75.4 76.3----
2024-05-28 06:18 amWNW 7.0 9.9----29.87- 75.2 76.3----
2024-05-28 06:12 am W 8.0 12.0----29.87- 75.2 76.3----
2024-05-28 06:06 amWNW 8.0 12.0----29.87- 75.2 76.3----
2024-05-28 06:00 amWNW 8.9 12.0----29.87+0.00 75.2 76.5----
2024-05-28 05:54 am W 8.9 12.0----29.87- 75.2 76.5----
2024-05-28 05:48 am W 8.0 11.1----29.88- 75.4 76.6----
2024-05-28 05:42 am W 9.9 13.0----29.88- 75.6 76.6----
2024-05-28 05:36 am W 8.0 13.0----29.88- 75.7 76.6----
2024-05-28 05:30 am W 9.9 14.0----29.88- 75.9 77.5----
2024-05-28 05:24 am W 8.9 12.0----29.88- 75.9 77.7----
2024-05-28 05:18 am W 12.0 14.0----29.88- 76.1 77.7----
2024-05-28 05:12 am W 11.1 15.9----29.87- 76.1 77.7----
2024-05-28 05:06 amWNW 11.1 15.0----29.87- 75.9 77.7----
2024-05-28 05:00 amWNW 11.1 15.0----29.87+0.00 75.7 77.7----
2024-05-28 04:54 am W 11.1 15.0----29.87- 75.9 77.9----
2024-05-28 04:48 am W 8.9 13.0----29.88- 75.9 77.7----
2024-05-28 04:42 am W 9.9 14.0----29.88- 75.9 76.6----
2024-05-28 04:36 am W 11.1 15.9----29.88- 75.9 76.3----
2024-05-28 04:30 am W 12.0 15.9----29.87- 75.9 75.4----
2024-05-28 04:24 am W 9.9 15.0----29.87- 75.9 75.0----
2024-05-28 04:18 am W 13.0 15.9----29.87- 76.1 74.7----
2024-05-28 04:12 am W 12.0 15.0----29.87- 76.3 74.3----
2024-05-28 04:06 amWSW 13.0 17.1----29.87- 76.3 74.1----
2024-05-28 04:00 amWSW 15.0 17.1----29.87+0.00 76.3 73.8----
2024-05-28 03:54 amWSW 15.0 17.1----29.87- 76.6 73.6----